Showing default

CHINASAT 3B, 64062

Orbit data source: Space-Track

CHINASAT 3B, 64062 is a payload satellite owned by PLA SSF (CN) in GEO that was launched on Tue, 20 May 2025 UTC via a CHANG ZHENG 7A launch vehicle from the Wenchang Satellite Launch Center (WSC). Payload-class satellites include a variety of spacecraft equipped with specific instruments for various scientific and technological missions. These include communications satellites like Starlink; space stations such as the ISS; scientific satellites like the Hubble; Earth observation satellites from companies like Planet Labs, Umbra, and HawkEye 360; GPS; miniature CubeSats for education and research; and military/defense satellites.

Not visible in the next 10 days
Identifier
64062, 2025-106A
Orbit
GEO
Country
Flag of CNCN / PRC
Related business
Manufacturer
SISE
Mission
Operational Defense Communications
Bus & Motor
FY-4?, LAE
Mass
~5,000 kg wet, ~2,500 kg dry
Launch date (UTC)
2025-05-20 (9 months ago)
Launch vehicle
CHANG ZHENG 7A
Launch site
Wenchang Satellite Launch Center (WSC)
Object type
Payload
Rocket body
Debris
Shape & HBR
Box + 2 Pan, 22.5 m
Radar Cross Section
34.063 m², Large (>1 m²)

Expand to show TLE details & history
Last TLE update: 7 hours ago

TLE from 7 hours ago
0 CHINASAT 3B
1 64062U 25106A   26063.63586117 -.00000057  00000-0  00000+0 0  9998
2 64062   0.0198 124.1411 0001854 201.6252 232.8054  1.00269757  3013
Epoch: 2026-03-04T15:15Z
TLE epoch observation values (Epoch: 2026-03-04T15:15:38.405Z)
Latitude
0.03895°
Longitude
167.2789°
Altitude
35,791.409 km
Speed
3.074 km/s
True Right ascension
13h 14m 20s
True Declination
0° 02' 20"
Sunlit
Object was in daylight at epoch
Visualization orbit readout
Latitude
Unknown
Longitude
Unknown
Altitude
Unknown
Speed
Unknown
Apparent Right ascension
Unknown
Apparent Declination
Unknown
Sunlit
N/A
Visualization observer readout
Local Sidereal Time
02:15:37
Azimuth
Unknown
Elevation
Unknown
Doppler factor
Unknown
Orbital elements
Apogee altitude
35,796.052 km
Perigee altitude
35,780.416 km
Semi-major axis
42,166.371 km
Eccentricity
0.00019
Inclination
0.0198°
RAAN
124.1411°
Arg. of periapsis
201.6252°
True anomaly
232.78848°
Mean anomaly
232.8054°
Eccentric anomaly
232.79694°
Mean motion
0.25067 °/min
Orbital period
1,436.18 mins
BSTAR
0
Loading maneuver chart data...
Computing Atmospheric mass density...
Loading historical data...
Loading historical data...
Loading historical data...
Loading historical data...
Loading historical data...
Loading historical data...
Loading historical data...
Other satellites on launch #106 in the year 2025 (2025-05-20 UTC)

Documentation

Showing up to 5 results
|